Sturgis, MI

8:13 AM EDT on August 23, 2017 (GMT -0400)
Kirsch Municipal

Weather History for KIRS - March, 2014

Change the Weather History Date:

Tuesday, March 18, 2014

  Actual Average (KHAI) Record (KHAI)
Temperature  
Mean Temperature 32 °F -  
Max Temperature 44 °F 46 °F 71 °F (1966)
Min Temperature 19 °F 26 °F 8 °F (1964)
Degree Days  
Heating Degree Days 34    
Moisture  
Dew Point 26 °F    
Average Humidity 77    
Maximum Humidity 93    
Minimum Humidity 61    
Precipitation  
Precipitation 0.00 in - - ()
Sea Level Pressure  
Sea Level Pressure 29.89 in    
Wind  
Wind Speed 8 mph (ESE)    
Max Wind Speed 18 mph    
Max Gust Speed 23 mph    
Visibility 10 miles    
Events      
Averages and records for this station are not official NWS values.
T = Trace of Precipitation, MM = Missing Value Source: NWS Daily Summary

Daily Weather History Graph

Daily Weather History Graph

Search for Another Location

Airport or City:

Trip Planner

Search our weather history database for the weather conditions in past years. The results will help you decide how hot, cold, wet, or windy it might be!

Date:

Astronomy

Mar. 18, 2014 Rise Set
Actual Time 7:48 AM EDT 7:51 PM EDT
Civil Twilight 7:20 AM EDT 8:19 PM EDT
Nautical Twilight 6:48 AM EDT 8:52 PM EDT
Astronomical Twilight 6:15 AM EDT 9:25 PM EDT
Moon 10:10 PM EDT (3/18) 8:35 AM EDT (3/18)
Length of Visible Light 12h 58m
Length of Day
12h 03m
Waning Gibbous, 96% of the Moon is Illuminated
Mar 18
Waning Gibbous
Mar 23
Last Quarter
Mar 30
New
Apr 7
First Quarter
Apr 15
Full

Hourly Weather History & Observations

Time (EDT) Temp. Windchill Dew Point Humidity Pressure Visibility Wind Dir Wind Speed Gust Speed Precip Events Conditions
12:15 AM 24.8 °F 16.1 °F 15.8 °F 69% 29.89 in 10.0 mi ESE 8.1 mph - N/A   Clear
12:34 AM 24.8 °F 14.6 °F 15.8 °F 69% 29.89 in 10.0 mi ESE 10.4 mph - N/A   Mostly Cloudy
12:55 AM 24.8 °F 14.6 °F 15.8 °F 69% 29.88 in 10.0 mi ESE 10.4 mph - N/A   Scattered Clouds
1:15 AM 24.8 °F 16.9 °F 17.6 °F 74% 29.88 in 10.0 mi ESE 6.9 mph - N/A   Clear
1:34 AM 24.8 °F 17.9 °F 15.8 °F 69% 29.89 in 10.0 mi ESE 5.8 mph - N/A   Clear
1:55 AM 23.0 °F 15.8 °F 15.8 °F 74% 29.90 in 10.0 mi East 5.8 mph - N/A   Clear
2:15 AM 23.0 °F 18.4 °F 15.8 °F 74% 29.91 in 10.0 mi East 3.5 mph - N/A   Clear
2:34 AM 21.2 °F 14.9 °F 15.8 °F 80% 29.92 in 10.0 mi East 4.6 mph - N/A   Clear
2:54 AM 21.2 °F 14.9 °F 17.6 °F 86% 29.92 in 10.0 mi East 4.6 mph - N/A   Clear
3:15 AM 21.2 °F 16.4 °F 17.6 °F 86% 29.92 in 10.0 mi East 3.5 mph - N/A   Clear
3:34 AM 21.2 °F 14.9 °F 17.6 °F 86% 29.91 in 10.0 mi ESE 4.6 mph - N/A   Clear
3:55 AM 21.2 °F 16.4 °F 17.6 °F 86% 29.92 in 10.0 mi ESE 3.5 mph - N/A   Clear
4:14 AM 21.2 °F 16.4 °F 17.6 °F 86% 29.91 in 10.0 mi East 3.5 mph - N/A   Clear
4:34 AM 21.2 °F 16.4 °F 17.6 °F 86% 29.91 in 10.0 mi East 3.5 mph - N/A   Clear
4:55 AM 21.2 °F - 17.6 °F 86% 29.91 in 10.0 mi Calm Calm - N/A   Clear
5:14 AM 21.2 °F 14.9 °F 17.6 °F 86% 29.90 in 10.0 mi East 4.6 mph - N/A   Clear
5:34 AM 21.2 °F 14.9 °F 17.6 °F 86% 29.91 in 10.0 mi East 4.6 mph - N/A   Clear
5:55 AM 19.4 °F 11.5 °F 17.6 °F 93% 29.91 in 10.0 mi East 5.8 mph - N/A   Clear
6:14 AM 21.2 °F 13.6 °F 17.6 °F 86% 29.91 in 10.0 mi ESE 5.8 mph - N/A   Clear
6:34 AM 21.2 °F 14.9 °F 19.4 °F 93% 29.92 in 10.0 mi ESE 4.6 mph - N/A   Clear
6:55 AM 21.2 °F 13.6 °F 19.4 °F 93% 29.91 in 10.0 mi ESE 5.8 mph - N/A   Clear
7:14 AM 21.2 °F 10.9 °F 19.4 °F 93% 29.91 in 10.0 mi SE 9.2 mph - N/A   Clear
7:35 AM 21.2 °F 10.1 °F 19.4 °F 93% 29.91 in 10.0 mi SE 10.4 mph - N/A   Clear
7:55 AM 21.2 °F 11.7 °F 19.4 °F 93% 29.92 in 10.0 mi SE 8.1 mph - N/A   Clear
8:14 AM 23.0 °F 14.7 °F 19.4 °F 86% 29.92 in 10.0 mi ESE 6.9 mph - N/A   Clear
8:35 AM 24.8 °F 19.1 °F 21.2 °F 86% 29.92 in 10.0 mi SE 4.6 mph - N/A   Clear
8:55 AM 24.8 °F 16.9 °F 21.2 °F 86% 29.92 in 10.0 mi SE 6.9 mph - N/A   Clear
9:14 AM 26.6 °F 19.1 °F 21.2 °F 80% 29.93 in 10.0 mi ESE 6.9 mph - N/A   Clear
9:35 AM 28.4 °F 22.2 °F 23.0 °F 80% 29.93 in 10.0 mi ESE 5.8 mph - N/A   Clear
9:55 AM 28.4 °F 21.2 °F 24.8 °F 86% 29.93 in 10.0 mi ESE 6.9 mph - N/A   Clear
10:14 AM 30.2 °F 23.4 °F 24.8 °F 80% 29.93 in 10.0 mi SE 6.9 mph - N/A   Clear
10:35 AM 32.0 °F 25.6 °F 24.8 °F 75% 29.93 in 10.0 mi ESE 6.9 mph - N/A   Clear
10:54 AM 33.8 °F 27.0 °F 26.6 °F 75% 29.93 in 10.0 mi ESE 8.1 mph - N/A   Clear
11:14 AM 35.6 °F 31.7 °F 26.6 °F 70% 29.93 in 10.0 mi SE 4.6 mph - N/A   Clear
11:35 AM 35.6 °F 29.2 °F 26.6 °F 70% 29.94 in 10.0 mi SE 8.1 mph - N/A   Clear
11:54 AM 37.4 °F 31.4 °F 26.6 °F 65% 29.94 in 10.0 mi SE 8.1 mph - N/A   Clear
12:15 PM 39.2 °F 34.2 °F 28.4 °F 65% 29.95 in 10.0 mi SE 6.9 mph - N/A   Clear
12:35 PM 39.2 °F 33.0 °F 28.4 °F 65% 29.95 in 10.0 mi SSE 9.2 mph - N/A   Clear
12:54 PM 39.2 °F 34.2 °F 28.4 °F 65% 29.97 in 10.0 mi SSE 6.9 mph - N/A   Clear
1:15 PM 41.0 °F 36.4 °F 30.2 °F 65% 29.96 in 10.0 mi South 6.9 mph - N/A   Clear
1:34 PM 41.0 °F 36.4 °F 30.2 °F 65% 29.96 in 10.0 mi SE 6.9 mph - N/A   Clear
1:54 PM 41.0 °F 35.2 °F 30.2 °F 65% 29.96 in 10.0 mi SE 9.2 mph - N/A   Clear
2:15 PM 39.2 °F 33.0 °F 30.2 °F 70% 29.95 in 10.0 mi ESE 9.2 mph - N/A   Clear
2:34 PM 42.8 °F 35.8 °F 32.0 °F 66% 29.94 in 10.0 mi ESE 13.8 mph 17.3 mph N/A   Clear
2:54 PM 42.8 °F 35.1 °F 30.2 °F 61% 29.93 in 10.0 mi ESE 16.1 mph - N/A   Clear
3:15 PM 42.8 °F 34.8 °F 32.0 °F 66% 29.91 in 10.0 mi SE 17.3 mph 23.0 mph N/A   Clear
3:34 PM 42.8 °F 36.2 °F 33.8 °F 70% 29.93 in 10.0 mi SSE 12.7 mph 19.6 mph N/A   Clear
3:54 PM 42.8 °F 36.6 °F 33.8 °F 70% 29.93 in 10.0 mi SE 11.5 mph 19.6 mph N/A   Scattered Clouds
4:15 PM 42.8 °F 36.2 °F 33.8 °F 70% 29.92 in 10.0 mi ESE 12.7 mph - N/A   Scattered Clouds
4:34 PM 42.8 °F 36.6 °F 33.8 °F 70% 29.91 in 10.0 mi SE 11.5 mph 17.3 mph N/A   Scattered Clouds
4:55 PM 44.6 °F 36.9 °F 35.6 °F 71% 29.89 in 10.0 mi ESE 18.4 mph - N/A   Clear
5:15 PM 44.6 °F 37.4 °F 33.8 °F 66% 29.87 in 10.0 mi ESE 16.1 mph 21.9 mph N/A   Clear
5:34 PM 42.8 °F 36.2 °F 33.8 °F 70% 29.87 in 10.0 mi ESE 12.7 mph 20.7 mph N/A   Clear
5:55 PM 42.8 °F 36.2 °F 33.8 °F 70% 29.87 in 10.0 mi SE 12.7 mph 19.6 mph N/A   Clear
6:15 PM 44.6 °F 39.2 °F 35.6 °F 71% 29.86 in 10.0 mi SE 10.4 mph - N/A   Clear
6:34 PM 42.8 °F 37.0 °F 33.8 °F 70% 29.85 in 10.0 mi ESE 10.4 mph - N/A   Clear
6:55 PM 42.8 °F 37.0 °F 35.6 °F 76% 29.85 in 10.0 mi ESE 10.4 mph - N/A   Clear
7:15 PM 42.8 °F 37.0 °F 33.8 °F 70% 29.84 in 10.0 mi East 10.4 mph 16.1 mph N/A   Clear
7:34 PM 41.0 °F 35.8 °F 33.8 °F 76% 29.83 in 10.0 mi East 8.1 mph - N/A   Clear
7:55 PM 39.2 °F 32.5 °F 33.8 °F 81% 29.82 in 10.0 mi East 10.4 mph - N/A   Clear
8:14 PM 39.2 °F 32.0 °F 33.8 °F 81% 29.80 in 10.0 mi East 11.5 mph - N/A   Clear
8:35 PM 39.2 °F 33.0 °F 33.8 °F 81% 29.80 in 10.0 mi East 9.2 mph - N/A   Clear
8:55 PM 39.2 °F 32.0 °F 33.8 °F 81% 29.79 in 10.0 mi East 11.5 mph - N/A   Clear
9:14 PM 39.2 °F 32.5 °F 33.8 °F 81% 29.80 in 10.0 mi East 10.4 mph - N/A   Clear
9:35 PM 37.4 °F 29.8 °F 33.8 °F 87% 29.79 in 10.0 mi East 11.5 mph - N/A   Clear
9:55 PM 37.4 °F 29.8 °F 32.0 °F 81% 29.78 in 10.0 mi East 11.5 mph - N/A   Clear
10:14 PM 37.4 °F 30.8 °F 32.0 °F 81% 29.78 in 10.0 mi East 9.2 mph - N/A   Clear
10:35 PM 35.6 °F 28.6 °F 32.0 °F 87% 29.79 in 10.0 mi East 9.2 mph - N/A   Clear
10:55 PM 35.6 °F 28.0 °F 32.0 °F 87% 29.79 in 10.0 mi East 10.4 mph - N/A   Clear
11:14 PM 35.6 °F 28.6 °F 30.2 °F 81% 29.80 in 10.0 mi East 9.2 mph - N/A   Clear
11:35 PM 37.4 °F 30.8 °F 32.0 °F 81% 29.81 in 10.0 mi ESE 9.2 mph - N/A   Clear
11:55 PM 35.6 °F 30.7 °F 30.2 °F 81% 29.82 in 10.0 mi ESE 5.8 mph - N/A   Clear